Location: Lake Arresoe
(56.0000°N, 12.5000°E)
Time: 16:16:23
(UTC+02:00)

Resurs 1-4 Rocket - Pass Details

Date: 25 July 2021
Orbit: 799 x 814 km, 98.6° (Epoch: 27 September)

Event Time Altitude Azimuth Distance (km) Brightness Sun altitude
Rises 03:47:09 0° 14° (NNE) 3,354 6.8 -8.0°
Reaches altitude 10° 03:49:33 10° 10° (N) 2,417 5.7 -7.8°
Maximum altitude 03:54:42 51° 296° (WNW) 1,025 2.6 -7.3°
Drops below altitude 10° 03:59:48 10° 222° (SW) 2,393 3.9 -6.9°
Enters shadow 04:00:09 - 221° (SW) 2,533 4.0 -6.9°
